Time,TemperatureF,DewpointF,PressureIn,WindDirection,WindDirectionDegrees,WindSpeedMPH,WindSpeedGustMPH,Humidity,HourlyPrecipIn,Conditions,Clouds,dailyrainin,SolarRadiationWatts/m^2,SoftwareType,DateUTC
2013-05-12 00:02:00,40.6,28.2,30.06,NW,316,4.0,4.0,61,0.00,,,0.01,0,Wunderground v.1.15,2013-05-12 05:02:00,
2013-05-12 00:07:00,40.7,27.9,30.07,NW,309,6.0,8.0,60,0.00,,,0.00,0,Wunderground v.1.15,2013-05-12 05:07:00,
2013-05-12 00:13:00,40.9,28.5,30.07,NW,320,3.0,4.0,61,0.00,,,0.00,0,Wunderground v.1.15,2013-05-12 05:13:00,
2013-05-12 00:19:00,41.0,28.6,30.07,NW,311,5.0,7.0,61,0.00,,,0.00,0,Wunderground v.1.15,2013-05-12 05:19:00,
2013-05-12 00:24:00,41.1,29.5,30.07,NW,305,9.0,9.0,63,0.00,,,0.00,0,Wunderground v.1.15,2013-05-12 05:24:00,
2013-05-12 00:29:00,41.2,30.7,30.07,NW,316,12.0,12.0,66,0.00,,,0.00,0,Wunderground v.1.15,2013-05-12 05:29:00,
2013-05-12 00:35:00,40.8,31.1,30.07,NW,315,6.0,13.0,68,0.00,,,0.00,0,Wunderground v.1.15,2013-05-12 05:35:00,
2013-05-12 00:40:00,40.7,31.7,30.07,NW,307,2.0,6.0,70,0.00,,,0.00,0,Wunderground v.1.15,2013-05-12 05:40:00,
2013-05-12 00:46:00,40.8,31.8,30.07,NW,315,5.0,10.0,70,0.00,,,0.00,0,Wunderground v.1.15,2013-05-12 05:46:00,
2013-05-12 00:51:00,40.9,31.5,30.07,NW,319,7.0,7.0,69,0.00,,,0.00,0,Wunderground v.1.15,2013-05-12 05:51:00,
2013-05-12 00:56:00,41.1,31.0,30.07,WNW,294,10.0,10.0,67,0.00,,,0.00,0,Wunderground v.1.15,2013-05-12 05:56:00,
2013-05-12 01:02:00,41.4,30.9,30.07,WNW,282,8.0,8.0,66,0.00,,,0.00,0,Wunderground v.1.15,2013-05-12 06:02:00,
2013-05-12 01:07:00,41.6,30.3,30.07,NW,325,8.0,9.0,64,0.00,,,0.00,0,Wunderground v.1.15,2013-05-12 06:07:00,
2013-05-12 01:12:00,41.7,30.4,30.07,North,350,3.0,7.0,64,0.00,,,0.00,0,Wunderground v.1.15,2013-05-12 06:12:00,
2013-05-12 01:18:00,41.7,30.0,30.07,NW,319,8.0,10.0,63,0.00,,,0.00,0,Wunderground v.1.15,2013-05-12 06:18:00,
2013-05-12 01:23:00,41.8,30.1,30.07,NW,316,6.0,7.0,63,0.00,,,0.00,0,Wunderground v.1.15,2013-05-12 06:23:00,
2013-05-12 01:28:00,41.8,29.3,30.07,North,11,11.0,11.0,61,0.00,,,0.00,0,Wunderground v.1.15,2013-05-12 06:28:00,
2013-05-12 01:34:00,41.8,29.3,30.07,NW,310,11.0,11.0,61,0.00,,,0.00,0,Wunderground v.1.15,2013-05-12 06:34:00,
2013-05-12 01:39:00,41.8,29.3,30.07,NNW,327,10.0,11.0,61,0.00,,,0.00,0,Wunderground v.1.15,2013-05-12 06:39:00,
2013-05-12 01:44:00,41.6,29.1,30.07,NW,316,2.0,8.0,61,0.00,,,0.00,0,Wunderground v.1.15,2013-05-12 06:44:00,
2013-05-12 01:49:00,41.4,29.3,30.07,WNW,301,7.0,8.0,62,0.00,,,0.00,0,Wunderground v.1.15,2013-05-12 06:49:00,
2013-05-12 01:55:00,41.2,28.4,30.07,NW,309,10.0,12.0,60,0.00,,,0.00,0,Wunderground v.1.15,2013-05-12 06:55:00,
2013-05-12 02:00:00,41.3,28.4,30.07,NW,315,8.0,8.0,60,0.00,,,0.00,0,Wunderground v.1.15,2013-05-12 07:00:00,
2013-05-12 02:05:00,41.2,27.9,30.07,NW,306,9.0,15.0,59,0.00,,,0.00,0,Wunderground v.1.15,2013-05-12 07:05:00,
2013-05-12 02:10:00,41.1,27.9,30.07,NW,321,10.0,12.0,59,0.00,,,0.00,0,Wunderground v.1.15,2013-05-12 07:10:00,
2013-05-12 02:15:00,40.9,27.7,30.07,NNW,348,2.0,12.0,59,0.00,,,0.00,0,Wunderground v.1.15,2013-05-12 07:15:00,
2013-05-12 02:20:00,40.7,27.5,30.07,NW,323,12.0,15.0,59,0.00,,,0.00,0,Wunderground v.1.15,2013-05-12 07:20:00,
2013-05-12 02:25:00,40.7,27.9,30.07,NW,309,6.0,15.0,60,0.00,,,0.00,0,Wunderground v.1.15,2013-05-12 07:25:00,
2013-05-12 02:30:00,40.5,27.7,30.07,NW,311,2.0,7.0,60,0.00,,,0.00,0,Wunderground v.1.15,2013-05-12 07:30:00,
2013-05-12 02:35:00,40.3,27.5,30.07,NW,309,8.0,16.0,60,0.00,,,0.00,0,Wunderground v.1.15,2013-05-12 07:35:00,
2013-05-12 02:40:00,40.2,27.4,30.08,NW,321,6.0,9.0,60,0.00,,,0.00,0,Wunderground v.1.15,2013-05-12 07:40:00,
2013-05-12 02:45:00,40.1,27.3,30.07,NW,317,4.0,14.0,60,0.00,,,0.00,0,Wunderground v.1.15,2013-05-12 07:45:00,
2013-05-12 02:50:00,39.9,27.1,30.07,NW,321,8.0,12.0,60,0.00,,,0.00,0,Wunderground v.1.15,2013-05-12 07:50:00,
2013-05-12 02:55:00,39.8,27.0,30.08,North,355,1.0,12.0,60,0.00,,,0.00,0,Wunderground v.1.15,2013-05-12 07:55:00,
2013-05-12 03:00:00,39.7,26.9,30.08,NW,309,5.0,10.0,60,0.00,,,0.00,0,Wunderground v.1.15,2013-05-12 08:00:00,
2013-05-12 03:05:00,39.7,26.9,30.08,WNW,302,7.0,15.0,60,0.00,,,0.00,0,Wunderground v.1.15,2013-05-12 08:05:00,
2013-05-12 03:10:00,39.7,26.9,30.08,WNW,297,11.0,11.0,60,0.00,,,0.00,0,Wunderground v.1.15,2013-05-12 08:10:00,
2013-05-12 03:15:00,39.6,26.8,30.08,WNW,294,8.0,12.0,60,0.00,,,0.00,0,Wunderground v.1.15,2013-05-12 08:15:00,
2013-05-12 03:20:00,39.5,26.8,30.08,NW,308,6.0,9.0,60,0.00,,,0.00,0,Wunderground v.1.15,2013-05-12 08:20:00,
2013-05-12 03:25:00,39.4,26.7,30.08,NW,317,6.0,14.0,60,0.00,,,0.00,0,Wunderground v.1.15,2013-05-12 08:25:00,
2013-05-12 03:30:00,39.3,27.0,30.08,NW,320,8.0,14.0,61,0.00,,,0.00,0,Wunderground v.1.15,2013-05-12 08:30:00,
2013-05-12 03:35:00,39.2,26.9,30.08,WNW,298,5.0,14.0,61,0.00,,,0.00,0,Wunderground v.1.15,2013-05-12 08:35:00,
2013-05-12 03:40:00,39.1,26.8,30.08,NW,307,3.0,9.0,61,0.00,,,0.00,0,Wunderground v.1.15,2013-05-12 08:40:00,
2013-05-12 03:45:00,39.0,26.7,30.08,NW,304,4.0,14.0,61,0.00,,,0.00,0,Wunderground v.1.15,2013-05-12 08:45:00,
2013-05-12 03:50:00,38.9,27.0,30.08,NW,311,8.0,14.0,62,0.00,,,0.00,0,Wunderground v.1.15,2013-05-12 08:50:00,
2013-05-12 03:56:00,38.8,26.9,30.08,NW,307,9.0,14.0,62,0.00,,,0.00,0,Wunderground v.1.15,2013-05-12 08:56:00,
2013-05-12 04:01:00,38.6,26.3,30.08,WNW,295,6.0,15.0,61,0.00,,,0.00,0,Wunderground v.1.15,2013-05-12 09:01:00,
2013-05-12 04:05:00,38.7,26.0,30.08,NW,315,4.0,18.0,60,0.00,,,0.00,0,Wunderground v.1.15,2013-05-12 09:05:00,
2013-05-12 04:10:00,38.5,25.8,30.08,NW,304,9.0,13.0,60,0.00,,,0.00,0,Wunderground v.1.15,2013-05-12 09:10:00,
2013-05-12 04:16:00,38.4,26.1,30.08,NW,313,6.0,13.0,61,0.00,,,0.00,0,Wunderground v.1.15,2013-05-12 09:16:00,
2013-05-12 04:21:00,38.3,26.0,30.08,NW,304,12.0,12.0,61,0.00,,,0.00,0,Wunderground v.1.15,2013-05-12 09:21:00,
2013-05-12 04:26:00,38.2,25.9,30.08,NNW,327,9.0,12.0,61,0.00,,,0.00,0,Wunderground v.1.15,2013-05-12 09:26:00,
2013-05-12 04:31:00,38.1,25.8,30.08,NW,322,8.0,10.0,61,0.00,,,0.00,0,Wunderground v.1.15,2013-05-12 09:31:00,
2013-05-12 04:36:00,37.9,25.6,30.09,NW,309,7.0,10.0,61,0.00,,,0.00,0,Wunderground v.1.15,2013-05-12 09:36:00,
2013-05-12 04:41:00,37.9,25.2,30.09,NNW,329,12.0,13.0,60,0.00,,,0.00,0,Wunderground v.1.15,2013-05-12 09:41:00,
2013-05-12 04:46:00,37.9,25.2,30.09,WNW,299,4.0,19.0,60,0.00,,,0.00,0,Wunderground v.1.15,2013-05-12 09:46:00,
2013-05-12 04:51:00,37.7,25.1,30.09,NNW,339,6.0,10.0,60,0.00,,,0.00,0,Wunderground v.1.15,2013-05-12 09:51:00,
2013-05-12 04:56:00,37.6,25.0,30.09,NNE,24,3.0,10.0,60,0.00,,,0.00,0,Wunderground v.1.15,2013-05-12 09:56:00,
2013-05-12 05:01:00,37.5,24.9,30.09,WNW,284,7.0,11.0,60,0.00,,,0.00,0,Wunderground v.1.15,2013-05-12 10:01:00,
2013-05-12 05:06:00,37.4,25.2,30.09,NW,317,8.0,11.0,61,0.00,,,0.00,0,Wunderground v.1.15,2013-05-12 10:06:00,
2013-05-12 05:11:00,37.2,25.4,30.09,NW,316,4.0,7.0,62,0.00,,,0.00,0,Wunderground v.1.15,2013-05-12 10:11:00,
2013-05-12 05:16:00,37.0,25.2,30.09,NW,309,4.0,9.0,62,0.00,,,0.00,0,Wunderground v.1.15,2013-05-12 10:16:00,
2013-05-12 05:21:00,36.9,25.1,30.09,WNW,287,4.0,6.0,62,0.00,,,0.00,0,Wunderground v.1.15,2013-05-12 10:21:00,
2013-05-12 05:26:00,36.7,25.3,30.09,WNW,288,2.0,6.0,63,0.00,,,0.00,0,Wunderground v.1.15,2013-05-12 10:26:00,
2013-05-12 05:31:00,36.5,25.5,30.09,NW,313,4.0,5.0,64,0.00,,,0.00,0,Wunderground v.1.15,2013-05-12 10:31:00,
2013-05-12 05:36:00,36.3,25.3,30.10,NW,306,4.0,6.0,64,0.00,,,0.00,5,Wunderground v.1.15,2013-05-12 10:36:00,
2013-05-12 05:41:00,36.1,25.5,30.09,NW,306,1.0,4.0,65,0.00,,,0.00,9,Wunderground v.1.15,2013-05-12 10:41:00,
2013-05-12 05:46:00,36.0,25.4,30.09,WNW,290,4.0,6.0,65,0.00,,,0.00,11,Wunderground v.1.15,2013-05-12 10:46:00,
2013-05-12 05:51:00,35.9,25.6,30.10,WNW,298,6.0,6.0,66,0.00,,,0.00,14,Wunderground v.1.15,2013-05-12 10:51:00,
2013-05-12 05:56:00,36.1,25.8,30.10,WNW,286,1.0,7.0,66,0.00,,,0.00,19,Wunderground v.1.15,2013-05-12 10:56:00,
2013-05-12 06:01:00,36.3,26.0,30.10,WNW,300,8.0,9.0,66,0.00,,,0.00,26,Wunderground v.1.15,2013-05-12 11:01:00,
2013-05-12 06:06:00,36.6,26.3,30.10,NW,306,3.0,9.0,66,0.00,,,0.00,35,Wunderground v.1.15,2013-05-12 11:06:00,
2013-05-12 06:11:00,36.8,26.5,30.10,NW,306,3.0,3.0,66,0.00,,,0.00,44,Wunderground v.1.15,2013-05-12 11:11:00,
2013-05-12 06:16:00,36.9,26.6,30.10,WSW,240,2.0,7.0,66,0.00,,,0.00,56,Wunderground v.1.15,2013-05-12 11:16:00,
2013-05-12 06:21:00,37.1,26.8,30.10,West,265,4.0,5.0,66,0.00,,,0.00,72,Wunderground v.1.15,2013-05-12 11:21:00,
2013-05-12 06:26:00,37.2,26.9,30.10,WNW,298,3.0,7.0,66,0.00,,,0.00,88,Wunderground v.1.15,2013-05-12 11:26:00,
2013-05-12 06:31:00,37.5,26.8,30.11,WNW,291,2.0,4.0,65,0.00,,,0.00,105,Wunderground v.1.15,2013-05-12 11:31:00,
2013-05-12 06:36:00,37.7,27.0,30.11,WNW,284,4.0,7.0,65,0.00,,,0.00,125,Wunderground v.1.15,2013-05-12 11:36:00,
2013-05-12 06:42:00,37.9,26.8,30.11,WNW,300,4.0,9.0,64,0.00,,,0.00,144,Wunderground v.1.15,2013-05-12 11:42:00,
2013-05-12 06:47:00,38.2,27.1,30.12,NW,317,3.0,9.0,64,0.00,,,0.00,163,Wunderground v.1.15,2013-05-12 11:47:00,
2013-05-12 06:52:00,38.4,27.3,30.12,WNW,290,4.0,6.0,64,0.00,,,0.00,185,Wunderground v.1.15,2013-05-12 11:52:00,
2013-05-12 06:57:00,38.6,27.5,30.12,NW,321,5.0,9.0,64,0.00,,,0.00,206,Wunderground v.1.15,2013-05-12 11:57:00,
2013-05-12 07:02:00,38.7,27.9,30.12,NW,304,3.0,8.0,65,0.00,,,0.00,223,Wunderground v.1.15,2013-05-12 12:02:00,
2013-05-12 07:07:00,39.0,27.8,30.12,West,277,10.0,14.0,64,0.00,,,0.00,244,Wunderground v.1.15,2013-05-12 12:07:00,
2013-05-12 07:12:00,39.2,28.0,30.12,NW,323,4.0,10.0,64,0.00,,,0.00,264,Wunderground v.1.15,2013-05-12 12:12:00,
2013-05-12 07:17:00,39.3,27.7,30.12,NNW,333,4.0,16.0,63,0.00,,,0.00,279,Wunderground v.1.15,2013-05-12 12:17:00,
2013-05-12 07:22:00,39.3,27.4,30.13,NW,315,5.0,11.0,62,0.00,,,0.00,297,Wunderground v.1.15,2013-05-12 12:22:00,
2013-05-12 07:27:00,39.4,26.7,30.12,NW,315,4.0,11.0,60,0.00,,,0.00,315,Wunderground v.1.15,2013-05-12 12:27:00,
2013-05-12 07:32:00,39.6,26.4,30.13,NNE,32,4.0,11.0,59,0.00,,,0.00,330,Wunderground v.1.15,2013-05-12 12:32:00,
2013-05-12 07:37:00,39.6,26.4,30.13,NW,315,4.0,15.0,59,0.00,,,0.00,348,Wunderground v.1.15,2013-05-12 12:37:00,
2013-05-12 07:42:00,39.5,25.5,30.12,NW,313,17.0,17.0,57,0.00,,,0.00,362,Wunderground v.1.15,2013-05-12 12:42:00,
2013-05-12 07:47:00,39.6,26.4,30.12,NW,319,2.0,19.0,59,0.00,,,0.00,378,Wunderground v.1.15,2013-05-12 12:47:00,
2013-05-12 07:52:00,39.9,25.9,30.12,WNW,300,7.0,12.0,57,0.00,,,0.00,394,Wunderground v.1.15,2013-05-12 12:52:00,
2013-05-12 07:57:00,40.0,26.0,30.12,NNW,340,4.0,13.0,57,0.00,,,0.00,411,Wunderground v.1.15,2013-05-12 12:57:00,
2013-05-12 08:02:00,40.1,26.1,30.12,NW,321,8.0,15.0,57,0.00,,,0.00,432,Wunderground v.1.15,2013-05-12 13:02:00,
2013-05-12 08:07:00,40.1,26.1,30.12,NNW,331,9.0,19.0,57,0.00,,,0.00,454,Wunderground v.1.15,2013-05-12 13:07:00,
2013-05-12 08:12:00,40.0,26.8,30.13,NW,315,11.0,14.0,59,0.00,,,0.00,466,Wunderground v.1.15,2013-05-12 13:12:00,
2013-05-12 08:17:00,40.0,26.0,30.12,NW,325,12.0,16.0,57,0.00,,,0.00,485,Wunderground v.1.15,2013-05-12 13:17:00,
2013-05-12 08:22:00,40.2,27.0,30.12,NNW,327,5.0,13.0,59,0.00,,,0.00,499,Wunderground v.1.15,2013-05-12 13:22:00,
2013-05-12 08:27:00,40.9,27.2,30.12,NW,322,3.0,14.0,58,0.00,,,0.00,520,Wunderground v.1.15,2013-05-12 13:27:00,
2013-05-12 08:32:00,41.1,26.6,30.12,WNW,282,7.0,17.0,56,0.00,,,0.00,540,Wunderground v.1.15,2013-05-12 13:32:00,
2013-05-12 08:37:00,41.0,26.9,30.12,NW,313,16.0,18.0,57,0.00,,,0.00,554,Wunderground v.1.15,2013-05-12 13:37:00,
2013-05-12 08:42:00,40.9,26.4,30.12,NW,319,8.0,16.0,56,0.00,,,0.00,566,Wunderground v.1.15,2013-05-12 13:42:00,
2013-05-12 08:47:00,40.8,26.7,30.12,NW,304,5.0,20.0,57,0.00,,,0.00,596,Wunderground v.1.15,2013-05-12 13:47:00,
2013-05-12 08:52:00,41.0,26.5,30.13,WNW,299,2.0,16.0,56,0.00,,,0.00,615,Wunderground v.1.15,2013-05-12 13:52:00,
2013-05-12 08:57:00,41.2,26.2,30.13,West,269,5.0,16.0,55,0.00,,,0.00,628,Wunderground v.1.15,2013-05-12 13:57:00,
2013-05-12 09:02:00,41.3,26.8,30.13,West,269,12.0,14.0,56,0.00,,,0.00,668,Wunderground v.1.15,2013-05-12 14:02:00,
2013-05-12 09:07:00,41.3,26.3,30.13,WNW,301,5.0,15.0,55,0.00,,,0.00,411,Wunderground v.1.15,2013-05-12 14:07:00,
2013-05-12 09:12:00,41.2,25.8,30.13,NW,321,6.0,16.0,54,0.00,,,0.00,680,Wunderground v.1.15,2013-05-12 14:12:00,
2013-05-12 09:17:00,41.6,27.5,30.13,WNW,303,9.0,18.0,57,0.00,,,0.00,679,Wunderground v.1.15,2013-05-12 14:17:00,
2013-05-12 09:22:00,41.9,26.0,30.13,NW,317,6.0,19.0,53,0.00,,,0.00,700,Wunderground v.1.15,2013-05-12 14:22:00,
2013-05-12 09:27:00,41.9,26.0,30.13,NW,319,11.0,19.0,53,0.00,,,0.00,673,Wunderground v.1.15,2013-05-12 14:27:00,
2013-05-12 09:32:00,42.0,27.0,30.13,West,267,15.0,18.0,55,0.00,,,0.00,726,Wunderground v.1.15,2013-05-12 14:32:00,
2013-05-12 09:37:00,42.3,25.9,30.13,NW,314,8.0,18.0,52,0.00,,,0.00,735,Wunderground v.1.15,2013-05-12 14:37:00,
2013-05-12 09:42:00,42.3,26.8,30.13,NW,323,7.0,13.0,54,0.00,,,0.00,737,Wunderground v.1.15,2013-05-12 14:42:00,
2013-05-12 09:47:00,42.5,27.9,30.14,NW,317,5.0,13.0,56,0.00,,,0.00,793,Wunderground v.1.15,2013-05-12 14:47:00,
2013-05-12 09:52:00,43.3,28.2,30.14,NNW,331,2.0,9.0,55,0.00,,,0.00,773,Wunderground v.1.15,2013-05-12 14:52:00,
2013-05-12 09:57:00,43.2,27.2,30.13,West,273,14.0,17.0,53,0.00,,,0.00,791,Wunderground v.1.15,2013-05-12 14:57:00,
2013-05-12 10:02:00,42.9,26.5,30.13,WNW,302,6.0,15.0,52,0.00,,,0.00,830,Wunderground v.1.15,2013-05-12 15:02:00,
2013-05-12 10:07:00,42.5,26.1,30.13,NNW,337,6.0,18.0,52,0.00,,,0.00,817,Wunderground v.1.15,2013-05-12 15:07:00,
2013-05-12 10:12:00,42.9,27.4,30.14,NW,307,9.0,17.0,54,0.00,,,0.00,823,Wunderground v.1.15,2013-05-12 15:12:00,
2013-05-12 10:17:00,43.4,28.3,30.14,West,262,8.0,17.0,55,0.00,,,0.00,946,Wunderground v.1.15,2013-05-12 15:17:00,
2013-05-12 10:22:00,44.1,28.9,30.13,West,274,7.0,14.0,55,0.00,,,0.00,926,Wunderground v.1.15,2013-05-12 15:22:00,
2013-05-12 10:27:00,44.0,28.9,30.13,WNW,294,3.0,15.0,55,0.00,,,0.00,884,Wunderground v.1.15,2013-05-12 15:27:00,
2013-05-12 10:32:00,44.2,28.6,30.13,WNW,289,6.0,12.0,54,0.00,,,0.00,272,Wunderground v.1.15,2013-05-12 15:32:00,
2013-05-12 10:37:00,44.0,28.9,30.13,WNW,287,11.0,16.0,55,0.00,,,0.00,893,Wunderground v.1.15,2013-05-12 15:37:00,
2013-05-12 10:43:00,44.0,28.0,30.13,NW,319,6.0,17.0,53,0.00,,,0.00,236,Wunderground v.1.15,2013-05-12 15:43:00,
2013-05-12 10:48:00,44.1,27.6,30.14,WNW,299,12.0,17.0,52,0.00,,,0.00,234,Wunderground v.1.15,2013-05-12 15:48:00,
2013-05-12 10:53:00,44.3,30.0,30.13,NW,312,3.0,11.0,57,0.00,,,0.00,995,Wunderground v.1.15,2013-05-12 15:53:00,
2013-05-12 10:58:00,45.0,27.9,30.14,NW,309,4.0,12.0,51,0.00,,,0.00,914,Wunderground v.1.15,2013-05-12 15:58:00,
2013-05-12 11:03:00,45.2,27.6,30.14,WNW,302,11.0,16.0,50,0.00,,,0.00,914,Wunderground v.1.15,2013-05-12 16:03:00,
2013-05-12 11:08:00,45.5,28.4,30.13,NNW,331,8.0,16.0,51,0.00,,,0.00,921,Wunderground v.1.15,2013-05-12 16:08:00,
2013-05-12 11:13:00,45.6,28.0,30.14,NW,316,9.0,16.0,50,0.00,,,0.00,925,Wunderground v.1.15,2013-05-12 16:13:00,
2013-05-12 11:18:00,45.6,28.0,30.13,West,274,8.0,17.0,50,0.00,,,0.00,935,Wunderground v.1.15,2013-05-12 16:18:00,
2013-05-12 11:23:00,45.8,28.2,30.13,NNW,339,5.0,16.0,50,0.00,,,0.00,940,Wunderground v.1.15,2013-05-12 16:23:00,
2013-05-12 11:28:00,46.0,27.4,30.13,NW,310,7.0,16.0,48,0.00,,,0.00,944,Wunderground v.1.15,2013-05-12 16:28:00,
2013-05-12 11:33:00,46.2,28.1,30.13,NNE,21,4.0,15.0,49,0.00,,,0.00,951,Wunderground v.1.15,2013-05-12 16:33:00,
2013-05-12 11:38:00,46.2,27.1,30.13,North,355,5.0,19.0,47,0.00,,,0.00,949,Wunderground v.1.15,2013-05-12 16:38:00,
2013-05-12 11:43:00,46.3,28.7,30.13,WNW,294,6.0,15.0,50,0.00,,,0.00,960,Wunderground v.1.15,2013-05-12 16:43:00,
2013-05-12 11:48:00,46.4,27.8,30.13,NNW,333,6.0,15.0,48,0.00,,,0.00,993,Wunderground v.1.15,2013-05-12 16:48:00,
2013-05-12 11:53:00,46.5,27.3,30.13,WNW,298,7.0,15.0,47,0.00,,,0.00,970,Wunderground v.1.15,2013-05-12 16:53:00,
2013-05-12 11:58:00,46.9,27.7,30.13,NW,319,7.0,15.0,47,0.00,,,0.00,976,Wunderground v.1.15,2013-05-12 16:58:00,
2013-05-12 12:03:00,47.3,29.1,30.13,NW,304,8.0,18.0,49,0.00,,,0.00,974,Wunderground v.1.15,2013-05-12 17:03:00,
2013-05-12 12:08:00,47.4,27.6,30.13,West,264,6.0,18.0,46,0.00,,,0.00,984,Wunderground v.1.15,2013-05-12 17:08:00,
2013-05-12 12:13:00,47.4,27.1,30.13,NNW,328,12.0,18.0,45,0.00,,,0.00,1025,Wunderground v.1.15,2013-05-12 17:13:00,
2013-05-12 12:18:00,47.4,29.2,30.13,WSW,254,3.0,18.0,49,0.00,,,0.00,267,Wunderground v.1.15,2013-05-12 17:18:00,
2013-05-12 12:23:00,47.5,29.3,30.13,WNW,294,8.0,10.0,49,0.00,,,0.00,1000,Wunderground v.1.15,2013-05-12 17:23:00,
2013-05-12 12:28:00,47.9,27.6,30.12,WSW,243,2.0,14.0,45,0.00,,,0.00,1072,Wunderground v.1.15,2013-05-12 17:28:00,
2013-05-12 12:33:00,48.2,27.8,30.12,NW,305,10.0,14.0,45,0.00,,,0.00,1013,Wunderground v.1.15,2013-05-12 17:33:00,
2013-05-12 12:38:00,48.4,29.1,30.12,NW,314,10.0,14.0,47,0.00,,,0.00,1041,Wunderground v.1.15,2013-05-12 17:38:00,
2013-05-12 12:43:00,48.2,27.8,30.12,NW,315,5.0,16.0,45,0.00,,,0.00,1035,Wunderground v.1.15,2013-05-12 17:43:00,
2013-05-12 12:48:00,48.6,27.6,30.13,NW,323,11.0,16.0,44,0.00,,,0.00,1039,Wunderground v.1.15,2013-05-12 17:48:00,
2013-05-12 12:53:00,48.8,27.3,30.13,WSW,254,5.0,12.0,43,0.00,,,0.00,1020,Wunderground v.1.15,2013-05-12 17:53:00,
2013-05-12 12:58:00,48.7,26.6,30.13,NW,323,18.0,20.0,42,0.00,,,0.00,1027,Wunderground v.1.15,2013-05-12 17:58:00,
2013-05-12 13:03:00,48.7,27.2,30.12,NW,310,7.0,17.0,43,0.00,,,0.00,1020,Wunderground v.1.15,2013-05-12 18:03:00,
2013-05-12 13:08:00,49.3,29.9,30.12,WNW,292,4.0,17.0,47,0.00,,,0.00,1056,Wunderground v.1.15,2013-05-12 18:08:00,
2013-05-12 13:13:00,49.7,28.6,30.12,NW,308,13.0,13.0,44,0.00,,,0.00,1049,Wunderground v.1.15,2013-05-12 18:13:00,
2013-05-12 13:18:00,49.6,26.8,30.12,NNW,337,4.0,17.0,41,0.00,,,0.00,991,Wunderground v.1.15,2013-05-12 18:18:00,
2013-05-12 13:23:00,49.9,30.5,30.12,North,5,3.0,14.0,47,0.00,,,0.00,990,Wunderground v.1.15,2013-05-12 18:23:00,
2013-05-12 13:28:00,50.3,28.6,30.11,WNW,293,9.0,15.0,43,0.00,,,0.00,1150,Wunderground v.1.15,2013-05-12 18:28:00,
2013-05-12 13:33:00,50.1,27.9,30.11,NNW,331,12.0,21.0,42,0.00,,,0.00,1013,Wunderground v.1.15,2013-05-12 18:33:00,
2013-05-12 13:38:00,49.9,27.7,30.11,NW,313,5.0,21.0,42,0.00,,,0.00,984,Wunderground v.1.15,2013-05-12 18:38:00,
2013-05-12 13:43:00,49.9,26.5,30.11,NW,319,3.0,15.0,40,0.00,,,0.00,998,Wunderground v.1.15,2013-05-12 18:43:00,
2013-05-12 13:48:00,50.3,27.5,30.11,NW,304,7.0,15.0,41,0.00,,,0.00,977,Wunderground v.1.15,2013-05-12 18:48:00,
2013-05-12 13:53:00,50.4,27.6,30.11,West,273,6.0,14.0,41,0.00,,,0.00,967,Wunderground v.1.15,2013-05-12 18:53:00,
2013-05-12 13:58:00,50.9,28.0,30.11,NW,321,10.0,14.0,41,0.00,,,0.00,1020,Wunderground v.1.15,2013-05-12 18:58:00,
2013-05-12 14:03:00,50.9,26.2,30.11,NW,315,9.0,21.0,38,0.00,,,0.00,974,Wunderground v.1.15,2013-05-12 19:03:00,
2013-05-12 14:08:00,50.8,27.9,30.11,NW,313,8.0,21.0,41,0.00,,,0.00,965,Wunderground v.1.15,2013-05-12 19:08:00,
2013-05-12 14:13:00,50.8,25.4,30.10,West,281,2.0,11.0,37,0.00,,,0.00,972,Wunderground v.1.15,2013-05-12 19:13:00,
2013-05-12 14:18:00,51.0,26.3,30.10,NW,321,8.0,17.0,38,0.00,,,0.00,1016,Wunderground v.1.15,2013-05-12 19:18:00,
2013-05-12 14:23:00,51.4,26.6,30.10,NW,313,7.0,13.0,38,0.00,,,0.00,988,Wunderground v.1.15,2013-05-12 19:23:00,
2013-05-12 14:28:00,51.1,26.3,30.10,WNW,294,11.0,17.0,38,0.00,,,0.00,969,Wunderground v.1.15,2013-05-12 19:28:00,
2013-05-12 14:34:00,51.1,25.7,30.10,NW,306,10.0,16.0,37,0.00,,,0.00,223,Wunderground v.1.15,2013-05-12 19:34:00,
2013-05-12 14:39:00,50.8,27.3,30.09,WNW,302,13.0,17.0,40,0.00,,,0.00,976,Wunderground v.1.15,2013-05-12 19:39:00,
2013-05-12 14:44:00,51.0,25.6,30.10,NNW,334,10.0,14.0,37,0.00,,,0.00,967,Wunderground v.1.15,2013-05-12 19:44:00,
2013-05-12 14:49:00,51.3,25.2,30.09,North,355,12.0,17.0,36,0.00,,,0.00,896,Wunderground v.1.15,2013-05-12 19:49:00,
2013-05-12 14:54:00,51.5,24.7,30.09,WNW,302,6.0,19.0,35,0.00,,,0.00,875,Wunderground v.1.15,2013-05-12 19:54:00,
2013-05-12 14:59:00,51.8,25.7,30.09,WNW,294,10.0,19.0,36,0.00,,,0.00,874,Wunderground v.1.15,2013-05-12 19:59:00,
2013-05-12 15:04:00,52.0,26.5,30.09,WSW,251,5.0,17.0,37,0.00,,,0.00,875,Wunderground v.1.15,2013-05-12 20:04:00,
2013-05-12 15:09:00,52.3,26.8,30.09,West,269,9.0,17.0,37,0.00,,,0.00,872,Wunderground v.1.15,2013-05-12 20:09:00,
2013-05-12 15:14:00,52.2,24.6,30.09,NW,317,6.0,16.0,34,0.00,,,0.00,847,Wunderground v.1.15,2013-05-12 20:14:00,
2013-05-12 15:19:00,52.4,26.9,30.09,WNW,297,3.0,22.0,37,0.00,,,0.00,828,Wunderground v.1.15,2013-05-12 20:19:00,
2013-05-12 15:24:00,52.8,26.6,30.09,West,275,8.0,12.0,36,0.00,,,0.00,830,Wunderground v.1.15,2013-05-12 20:24:00,
2013-05-12 15:29:00,52.9,26.6,30.09,WSW,250,12.0,15.0,36,0.00,,,0.00,831,Wunderground v.1.15,2013-05-12 20:29:00,
2013-05-12 15:34:00,53.3,27.0,30.09,West,279,5.0,14.0,36,0.00,,,0.00,810,Wunderground v.1.15,2013-05-12 20:34:00,
2013-05-12 15:39:00,53.3,26.3,30.09,NW,318,7.0,14.0,35,0.00,,,0.00,144,Wunderground v.1.15,2013-05-12 20:39:00,
2013-05-12 15:44:00,52.8,25.9,30.09,NW,317,11.0,18.0,35,0.00,,,0.00,789,Wunderground v.1.15,2013-05-12 20:44:00,
2013-05-12 15:49:00,52.8,26.6,30.09,NW,320,6.0,18.0,36,0.00,,,0.00,714,Wunderground v.1.15,2013-05-12 20:49:00,
2013-05-12 15:54:00,53.0,28.0,30.09,West,281,4.0,14.0,38,0.00,,,0.00,826,Wunderground v.1.15,2013-05-12 20:54:00,
2013-05-12 15:59:00,53.5,28.5,30.08,West,279,5.0,14.0,38,0.00,,,0.00,791,Wunderground v.1.15,2013-05-12 20:59:00,
2013-05-12 16:04:00,53.7,26.7,30.08,NW,310,9.0,13.0,35,0.00,,,0.00,183,Wunderground v.1.15,2013-05-12 21:04:00,
2013-05-12 16:09:00,53.3,26.3,30.08,NW,305,10.0,13.0,35,0.00,,,0.00,735,Wunderground v.1.15,2013-05-12 21:09:00,
2013-05-12 16:14:00,53.5,27.8,30.08,WNW,288,4.0,8.0,37,0.00,,,0.00,733,Wunderground v.1.15,2013-05-12 21:14:00,
2013-05-12 16:19:00,54.1,26.3,30.08,NW,319,12.0,16.0,34,0.00,,,0.00,686,Wunderground v.1.15,2013-05-12 21:19:00,
2013-05-12 16:24:00,54.0,26.9,30.08,West,277,8.0,13.0,35,0.00,,,0.00,666,Wunderground v.1.15,2013-05-12 21:24:00,
2013-05-12 16:29:00,54.1,27.7,30.08,NW,317,8.0,13.0,36,0.00,,,0.00,664,Wunderground v.1.15,2013-05-12 21:29:00,
2013-05-12 16:34:00,54.3,26.5,30.08,WNW,301,5.0,13.0,34,0.00,,,0.00,633,Wunderground v.1.15,2013-05-12 21:34:00,
2013-05-12 16:39:00,54.1,26.3,30.08,NW,313,6.0,21.0,34,0.00,,,0.00,619,Wunderground v.1.15,2013-05-12 21:39:00,
2013-05-12 16:46:00,53.9,25.4,30.08,WNW,295,13.0,16.0,33,0.00,,,0.00,606,Wunderground v.1.15,2013-05-12 21:46:00,
2013-05-12 16:51:00,53.7,24.5,30.08,WNW,297,6.0,10.0,32,0.00,,,0.00,608,Wunderground v.1.15,2013-05-12 21:51:00,
2013-05-12 16:56:00,53.7,26.0,30.08,NW,305,16.0,16.0,34,0.00,,,0.00,577,Wunderground v.1.15,2013-05-12 21:56:00,
2013-05-12 17:01:00,53.7,25.2,30.08,WNW,290,17.0,17.0,33,0.00,,,0.00,555,Wunderground v.1.15,2013-05-12 22:01:00,
2013-05-12 17:06:00,53.6,26.6,30.08,NW,304,7.0,17.0,35,0.00,,,0.00,555,Wunderground v.1.15,2013-05-12 22:06:00,
2013-05-12 17:11:00,53.9,26.8,30.08,West,266,11.0,13.0,35,0.00,,,0.00,547,Wunderground v.1.15,2013-05-12 22:11:00,
2013-05-12 17:16:00,54.0,25.5,30.08,WNW,287,5.0,14.0,33,0.00,,,0.00,533,Wunderground v.1.15,2013-05-12 22:16:00,
2013-05-12 17:21:00,53.9,25.4,30.08,West,277,8.0,10.0,33,0.00,,,0.00,506,Wunderground v.1.15,2013-05-12 22:21:00,
2013-05-12 17:26:00,53.9,26.1,30.08,NW,323,13.0,16.0,34,0.00,,,0.00,487,Wunderground v.1.15,2013-05-12 22:26:00,
2013-05-12 17:31:00,54.0,25.5,30.08,NW,318,5.0,9.0,33,0.00,,,0.00,482,Wunderground v.1.15,2013-05-12 22:31:00,
2013-05-12 17:36:00,54.1,24.9,30.08,WNW,289,11.0,19.0,32,0.00,,,0.00,466,Wunderground v.1.15,2013-05-12 22:36:00,
2013-05-12 17:41:00,54.0,26.2,30.08,WNW,287,8.0,9.0,34,0.00,,,0.00,429,Wunderground v.1.15,2013-05-12 22:41:00,
2013-05-12 17:46:00,54.0,26.2,30.08,WNW,284,13.0,13.0,34,0.00,,,0.00,404,Wunderground v.1.15,2013-05-12 22:46:00,
2013-05-12 17:51:00,53.9,24.7,30.08,NW,321,4.0,13.0,32,0.00,,,0.00,385,Wunderground v.1.15,2013-05-12 22:51:00,
2013-05-12 17:56:00,54.0,26.2,30.08,NW,306,12.0,13.0,34,0.00,,,0.00,369,Wunderground v.1.15,2013-05-12 22:56:00,
2013-05-12 18:01:00,54.1,25.6,30.08,WNW,303,6.0,11.0,33,0.00,,,0.00,350,Wunderground v.1.15,2013-05-12 23:01:00,
2013-05-12 18:06:00,54.2,26.4,30.07,NW,313,7.0,15.0,34,0.00,,,0.00,334,Wunderground v.1.15,2013-05-12 23:06:00,
2013-05-12 18:11:00,53.9,25.4,30.08,NW,306,3.0,8.0,33,0.00,,,0.00,318,Wunderground v.1.15,2013-05-12 23:11:00,
2013-05-12 18:16:00,53.7,23.7,30.08,NW,306,4.0,13.0,31,0.00,,,0.00,304,Wunderground v.1.15,2013-05-12 23:16:00,
2013-05-12 18:21:00,53.4,23.5,30.07,NW,323,6.0,14.0,31,0.00,,,0.00,292,Wunderground v.1.15,2013-05-12 23:21:00,
2013-05-12 18:26:00,53.2,24.8,30.07,WNW,301,5.0,14.0,33,0.00,,,0.00,269,Wunderground v.1.15,2013-05-12 23:26:00,
2013-05-12 18:32:00,53.2,25.5,30.07,North,355,15.0,15.0,34,0.00,,,0.00,248,Wunderground v.1.15,2013-05-12 23:32:00,
2013-05-12 18:37:00,53.1,24.0,30.07,WNW,297,8.0,16.0,32,0.00,,,0.00,227,Wunderground v.1.15,2013-05-12 23:37:00,
2013-05-12 18:42:00,53.0,24.6,30.07,WNW,296,7.0,15.0,33,0.00,,,0.01,206,Wunderground v.1.15,2013-05-12 23:42:00,
2013-05-12 18:47:00,53.0,24.6,30.07,NNW,327,7.0,15.0,33,0.00,,,0.01,186,Wunderground v.1.15,2013-05-12 23:47:00,
2013-05-12 18:52:00,53.0,24.6,30.07,NW,305,3.0,10.0,33,0.00,,,0.01,165,Wunderground v.1.15,2013-05-12 23:52:00,
2013-05-12 18:57:00,53.0,26.7,30.07,NNW,329,3.0,10.0,36,0.00,,,0.01,148,Wunderground v.1.15,2013-05-12 23:57:00,
2013-05-12 19:02:00,52.9,23.8,30.07,West,277,5.0,14.0,32,0.00,,,0.01,114,Wunderground v.1.15,2013-05-13 00:02:00,
2013-05-12 19:07:00,52.7,24.4,30.07,NW,319,7.0,14.0,33,0.00,,,0.01,114,Wunderground v.1.15,2013-05-13 00:07:00,
2013-05-12 19:12:00,52.5,24.9,30.07,WNW,294,6.0,12.0,34,0.00,,,0.01,97,Wunderground v.1.15,2013-05-13 00:12:00,
2013-05-12 19:17:00,52.4,24.8,30.07,NW,322,9.0,16.0,34,0.00,,,0.01,81,Wunderground v.1.15,2013-05-13 00:17:00,
2013-05-12 19:22:00,52.2,23.9,30.07,NW,313,8.0,15.0,33,0.00,,,0.01,67,Wunderground v.1.15,2013-05-13 00:22:00,
2013-05-12 19:27:00,52.2,24.6,30.07,NW,320,9.0,15.0,34,0.00,,,0.01,53,Wunderground v.1.15,2013-05-13 00:27:00,
2013-05-12 19:32:00,52.1,25.3,30.07,WNW,301,6.0,10.0,35,0.00,,,0.01,44,Wunderground v.1.15,2013-05-13 00:32:00,
2013-05-12 19:37:00,51.9,25.1,30.07,NW,313,6.0,11.0,35,0.00,,,0.01,33,Wunderground v.1.15,2013-05-13 00:37:00,
2013-05-12 19:42:00,51.8,25.0,30.07,NW,309,5.0,7.0,35,0.00,,,0.01,25,Wunderground v.1.15,2013-05-13 00:42:00,
2013-05-12 19:47:00,51.6,25.5,30.07,NW,310,2.0,7.0,36,0.00,,,0.01,19,Wunderground v.1.15,2013-05-13 00:47:00,
2013-05-12 19:52:00,51.3,25.2,30.08,NW,317,8.0,8.0,36,0.00,,,0.01,16,Wunderground v.1.15,2013-05-13 00:52:00,
2013-05-12 19:57:00,51.0,25.0,30.08,WNW,300,4.0,8.0,36,0.00,,,0.01,14,Wunderground v.1.15,2013-05-13 00:57:00,
2013-05-12 20:02:00,50.7,25.3,30.08,NW,319,2.0,5.0,37,0.00,,,0.01,11,Wunderground v.1.15,2013-05-13 01:02:00,
2013-05-12 20:07:00,50.4,25.1,30.08,WNW,294,0.0,6.0,37,0.00,,,0.01,7,Wunderground v.1.15,2013-05-13 01:07:00,
2013-05-12 20:12:00,50.1,25.5,30.08,WNW,288,1.0,6.0,38,0.00,,,0.01,5,Wunderground v.1.15,2013-05-13 01:12:00,
2013-05-12 20:17:00,49.9,25.9,30.08,WNW,288,4.0,6.0,39,0.00,,,0.01,0,Wunderground v.1.15,2013-05-13 01:17:00,
2013-05-12 20:22:00,49.6,25.6,30.08,NW,304,1.0,4.0,39,0.00,,,0.01,0,Wunderground v.1.15,2013-05-13 01:22:00,
2013-05-12 20:27:00,49.3,25.4,30.08,NW,304,3.0,5.0,39,0.00,,,0.01,0,Wunderground v.1.15,2013-05-13 01:27:00,
2013-05-12 20:32:00,49.1,25.2,30.08,WNW,293,4.0,7.0,39,0.00,,,0.01,0,Wunderground v.1.15,2013-05-13 01:32:00,
2013-05-12 20:37:00,48.9,25.6,30.08,WNW,293,2.0,7.0,40,0.00,,,0.01,0,Wunderground v.1.15,2013-05-13 01:37:00,
2013-05-12 20:42:00,48.7,25.4,30.08,WNW,294,3.0,4.0,40,0.00,,,0.01,0,Wunderground v.1.15,2013-05-13 01:42:00,
2013-05-12 20:47:00,48.4,25.8,30.09,WNW,294,0.0,4.0,41,0.00,,,0.01,0,Wunderground v.1.15,2013-05-13 01:47:00,
2013-05-12 20:52:00,48.1,25.5,30.09,WNW,294,2.0,3.0,41,0.00,,,0.01,0,Wunderground v.1.15,2013-05-13 01:52:00,
2013-05-12 20:57:00,47.9,25.3,30.09,WNW,294,1.0,3.0,41,0.00,,,0.01,0,Wunderground v.1.15,2013-05-13 01:57:00,
2013-05-12 21:02:00,47.7,25.7,30.09,WNW,294,0.0,2.0,42,0.00,,,0.01,0,Wunderground v.1.15,2013-05-13 02:02:00,
2013-05-12 21:07:00,47.4,26.0,30.09,WNW,294,0.0,2.0,43,0.00,,,0.01,0,Wunderground v.1.15,2013-05-13 02:07:00,
2013-05-12 21:12:00,47.0,26.2,30.10,WNW,294,0.0,0.0,44,0.00,,,0.01,0,Wunderground v.1.15,2013-05-13 02:12:00,
2013-05-12 21:17:00,46.6,26.4,30.10,WNW,294,0.0,0.0,45,0.00,,,0.01,0,Wunderground v.1.15,2013-05-13 02:17:00,
2013-05-12 21:22:00,46.1,26.4,30.10,WNW,294,0.0,0.0,46,0.00,,,0.01,0,Wunderground v.1.15,2013-05-13 02:22:00,
2013-05-12 21:28:00,45.6,26.5,30.10,WNW,294,0.0,0.0,47,0.00,,,0.01,0,Wunderground v.1.15,2013-05-13 02:28:00,
2013-05-12 21:33:00,45.2,27.2,30.10,WNW,294,0.0,0.0,49,0.00,,,0.01,0,Wunderground v.1.15,2013-05-13 02:33:00,
2013-05-12 21:38:00,44.8,27.3,30.10,WNW,294,0.0,0.0,50,0.00,,,0.01,0,Wunderground v.1.15,2013-05-13 02:38:00,
2013-05-12 21:43:00,44.4,26.9,30.10,WNW,294,0.0,0.0,50,0.00,,,0.01,0,Wunderground v.1.15,2013-05-13 02:43:00,
2013-05-12 21:48:00,44.1,27.1,30.11,WNW,294,0.0,0.0,51,0.00,,,0.01,0,Wunderground v.1.15,2013-05-13 02:48:00,
2013-05-12 21:53:00,43.8,27.8,30.10,WNW,294,0.0,0.0,53,0.00,,,0.01,0,Wunderground v.1.15,2013-05-13 02:53:00,
2013-05-12 21:58:00,43.4,27.8,30.11,WNW,294,0.0,0.0,54,0.00,,,0.01,0,Wunderground v.1.15,2013-05-13 02:58:00,
2013-05-12 22:03:00,43.2,27.7,30.10,WNW,294,0.0,0.0,54,0.00,,,0.01,0,Wunderground v.1.15,2013-05-13 03:03:00,
2013-05-12 22:08:00,42.9,27.8,30.11,WNW,294,0.0,0.0,55,0.00,,,0.01,0,Wunderground v.1.15,2013-05-13 03:08:00,
2013-05-12 22:13:00,42.6,27.5,30.10,WNW,294,0.0,0.0,55,0.00,,,0.01,0,Wunderground v.1.15,2013-05-13 03:13:00,
2013-05-12 22:18:00,42.4,28.7,30.10,WNW,294,0.0,0.0,58,0.00,,,0.02,0,Wunderground v.1.15,2013-05-13 03:18:00,
2013-05-12 22:23:00,42.1,28.8,30.11,WNW,294,0.0,0.0,59,0.00,,,0.02,0,Wunderground v.1.15,2013-05-13 03:23:00,
2013-05-12 22:28:00,41.7,28.8,30.11,WNW,294,0.0,0.0,60,0.00,,,0.02,0,Wunderground v.1.15,2013-05-13 03:28:00,
2013-05-12 22:33:00,41.3,29.6,30.10,WNW,294,0.0,0.0,63,0.00,,,0.02,0,Wunderground v.1.15,2013-05-13 03:33:00,
2013-05-12 22:38:00,40.9,28.9,30.11,WNW,294,0.0,0.0,62,0.00,,,0.02,0,Wunderground v.1.15,2013-05-13 03:38:00,
2013-05-12 22:43:00,40.7,28.3,30.11,WNW,294,0.0,2.0,61,0.00,,,0.02,0,Wunderground v.1.15,2013-05-13 03:43:00,
2013-05-12 22:48:00,40.7,29.1,30.11,WNW,294,0.0,2.0,63,0.00,,,0.02,0,Wunderground v.1.15,2013-05-13 03:48:00,
2013-05-12 22:53:00,40.4,28.8,30.10,WNW,294,0.0,0.0,63,0.00,,,0.02,0,Wunderground v.1.15,2013-05-13 03:53:00,
2013-05-12 22:58:00,40.1,28.5,30.10,WNW,294,0.0,1.0,63,0.00,,,0.02,0,Wunderground v.1.15,2013-05-13 03:58:00,
2013-05-12 23:01:00,40.1,28.1,30.10,WNW,293,0.0,2.0,62,0.00,,,0.02,0,Wunderground v.1.15,2013-05-13 04:01:00,
2013-05-12 23:06:00,40.5,28.1,30.10,WNW,294,0.0,4.0,61,0.00,,,0.02,0,Wunderground v.1.15,2013-05-13 04:06:00,
2013-05-12 23:11:00,40.8,28.0,30.10,WNW,294,0.0,0.0,60,0.00,,,0.02,0,Wunderground v.1.15,2013-05-13 04:11:00,
2013-05-12 23:16:00,41.1,28.3,30.10,WNW,294,0.0,2.0,60,0.00,,,0.02,0,Wunderground v.1.15,2013-05-13 04:16:00,
2013-05-12 23:21:00,41.1,30.6,30.10,WNW,294,0.0,0.0,66,0.00,,,0.02,0,Wunderground v.1.15,2013-05-13 04:21:00,
2013-05-12 23:26:00,40.5,30.4,30.11,WNW,294,0.0,0.0,67,0.00,,,0.02,0,Wunderground v.1.15,2013-05-13 04:26:00,
2013-05-12 23:31:00,39.9,29.8,30.11,WNW,294,0.0,0.0,67,0.00,,,0.02,0,Wunderground v.1.15,2013-05-13 04:31:00,
2013-05-12 23:36:00,39.2,29.5,30.11,WNW,294,0.0,0.0,68,0.00,,,0.02,0,Wunderground v.1.15,2013-05-13 04:36:00,
2013-05-12 23:41:00,38.8,29.8,30.11,WNW,294,0.0,0.0,70,0.00,,,0.02,0,Wunderground v.1.15,2013-05-13 04:41:00,
2013-05-12 23:46:00,38.3,29.0,30.10,WNW,294,0.0,0.0,69,0.00,,,0.02,0,Wunderground v.1.15,2013-05-13 04:46:00,
2013-05-12 23:51:00,38.0,29.1,30.11,WNW,294,0.0,0.0,70,0.00,,,0.02,0,Wunderground v.1.15,2013-05-13 04:51:00,
2013-05-12 23:56:00,37.6,28.7,30.11,WNW,294,0.0,0.0,70,0.00,,,0.02,0,Wunderground v.1.15,2013-05-13 04:56:00,